Regional Weather Roundup
Issued by NWS

Home | Current Version | Previous Version | Graphics & Text | Print | Product List | Glossary On
Versions: 1 2 3 4 5 6 7 8 9 10 11 12 13 14 15 16 17 18 19 20 21 22 23 24 25 26 27 28 29 30 31 32 33 34 35 36 37 38 39 40 41 42 43 44 45 46 47 48 49 50
000
ASUS44 KMEG 052100
RWRTN
TENNESSEE HOURLY STATE WEATHER ROUNDUP
NATIONAL WEATHER SERVICE MEMPHIS TN
300 PM CST FRI FEB 05 2016

TNZ002-004-019-021-049-052-054-088>092-052200-
WEST TENNESSEE

CITY           SKY/WX    TMP DP  RH WIND       PRES   REMARKS
MEMPHIS INTL   CLOUDY    54  20  26 NW5       30.40F
NWS MEMPHIS      N/A     53 N/A N/A MISG        N/A
JACKSON        SUNNY     50  17  27 CALM      30.40F
DYERSBURG      CLOUDY    52  21  30 W6        30.41F
UNION CITY     SUNNY     48  23  37 SW9       30.38S
PARIS          SUNNY     46  19  34 SW6       30.38F
LEXINGTON      SUNNY     48  12  23 VRB3      30.39S
$$

TNZ008-025-027-028-033-062-065-066-052200-
NORTH MIDDLE TENNESSEE

CITY           SKY/WX    TMP DP  RH WIND       PRES   REMARKS
NASHVILLE      CLOUDY    48  11  22 CALM      30.41F
CLARKSVILLE    CLOUDY    49  18  29 SW9       30.38F
COOKEVILLE     SUNNY     46  16  29 VRB5      30.39R
CROSSVILLE     SUNNY     42  10  27 CALM      30.36R
$$

TNZ061-075-076-078-094-096-097-052200-
SOUTH MIDDLE TENNESSEE

CITY           SKY/WX    TMP DP  RH WIND       PRES   REMARKS
TULLAHOMA      SUNNY     45  10  24 VRB3      30.39F
WINCHESTER     SUNNY     45  14  29 CALM      30.39F
MCMINNVILLE    SUNNY     45  16  31 CALM      30.40S
COLUMBIA       SUNNY     48  21  34 E3        30.38F
SHELBYVILLE    SUNNY     46  19  34 VRB5      30.41F
$$

TNZ017-018-042-046-047-052200-
NORTHEAST TENNESSEE

CITY           SKY/WX    TMP DP  RH WIND       PRES   REMARKS
TRI CITIES     MOSUNNY   42  11  28 CALM      30.35S
$$

TNZ012-013-036-069-073-074-052200-
CENTRAL EAST TENNESSEE

CITY           SKY/WX    TMP DP  RH WIND       PRES   REMARKS
KNOXVILLE      PTSUNNY   44  15  31 VRB6      30.38F
OAK RIDGE      SUNNY     46  13  26 VRB3      30.39F
GATLINBURG       N/A     43  10  26 CALM      30.38S
$$

TNZ083-085-099-052200-
SOUTHEAST TENNESSEE

CITY           SKY/WX    TMP DP  RH WIND       PRES   REMARKS
CHATTANOOGA    PTSUNNY   47  12  24 NE8       30.40S
$$

SKY/WX REPORTED AS FAIR MEANS FEW OR NO CLOUDS BELOW
12 THOUSAND FEET.




USA.gov is the U.S. government's official web portal to all federal, state and local government web resources and services.